Regional Weather Roundup
Issued by NWS

Home | Current Version | Previous Version | Graphics & Text | Print | Product List | Glossary Off
Versions: 1 2 3 4 5 6 7 8 9 10 11 12 13 14 15 16 17 18 19 20 21 22 23 24 25 26 27 28 29 30 31 32 33 34 35 36 37 38 39 40 41 42 43 44 45 46 47 48 49 50

000
ASUS43 KTOP 201259
RWRKS

WEATHER ROUNDUP FOR KANSAS
NATIONAL WEATHER SERVICE GOODLAND KS
700 AM CST MON FEB 20 2017

NOTE:  "FAIR" INDICATES FEW OR NO CLOUDS BELOW 12,000 FEET WITH NO
SIGNIFICANT WEATHER AND/OR OBSTRUCTIONS TO VISIBILITY.

KSZ001>006-013>018-027>032-041>047-201400-
NORTHWEST KANSAS

CITY           SKY/WX    TMP DP  RH WIND       PRES   REMARKS
GOODLAND       PTCLDY    44  22  41 NW21      29.81R
HAYS           CLOUDY    51  48  89 SW6       29.74R
HILL CITY      CLOUDY    48  41  76 W3        29.72R
RUSSELL        CLOUDY    54  53  97 S14       29.71S
$$

KSZ061>065-074>080-084>089-201400-
SOUTHWEST KANSAS

CITY           SKY/WX    TMP DP  RH WIND       PRES   REMARKS
DODGE CITY     CLOUDY    48  39  71 SW9       29.78R
ELKHART          N/A     42  27  55 NW10        N/A
GARDEN CITY    PTCLDY    43  33  68 NW10      29.79R
GREAT BEND     CLOUDY    54  53  97 S14       29.75S
LIBERAL        CLOUDY    41  28  60 NW13      29.79S
$$

KSZ066>073-081>083-090>101-201400-
SOUTHEAST KANSAS

CITY           SKY/WX    TMP DP  RH WIND       PRES   REMARKS
CHANUTE        CLOUDY    60  57  89 S12       29.83S
COFFEYVILLE    LGT RAIN  60  59  96 S8        29.85R
HUTCHINSON     CLOUDY    56  55  97 S13       29.76F
MEDICINE LODGE   N/A     53  52  96 S9        29.74F
NEWTON         CLOUDY    56  55  97 S13       29.76F
PARSONS        LGT RAIN  60  58  92 S6        29.85S
WICHITA INTL   CLOUDY    56  56 100 SE8       29.76F
WICHITA JABRA  CLOUDY    57  56  96 SE9       29.75F
WICHITA MCCONL CLOUDY    57  55  94 S8        29.76F
WINFIELD       CLOUDY    57  55  93 SE8       29.77F
$$

KSZ007>012-019>026-033>040-048>060-102>105-201400-
NORTHEAST KANSAS

CITY           SKY/WX    TMP DP  RH WIND       PRES   REMARKS
CONCORDIA      CLOUDY    58  58 100 S14       29.75R
EMPORIA        LGT RAIN  58  58 100 S14       29.79R
LAWRENCE       CLOUDY    62  55  77 SE10      29.80F
MANHATTAN      CLOUDY    58  56  93 SW8       29.79R
OLATHE IND     MOCLDY    61  53  75 SE14      29.83F
OLATHE EXE     CLOUDY    59  55  87 SE9       29.83F
SALINA         CLOUDY    59  57  93 S8        29.76R
TOPEKA BILLARD LGT RAIN  61  56  83 SE10      29.78S
TOPEKA FORBES  LGT RAIN  61  57  87 SE13      29.78F
$$




USA.gov is the U.S. government's official web portal to all federal, state and local government web resources and services.